Benton Harbor, MI

1:31 PM EST on February 11, 2016 (GMT -0500)
Southwest Michigan Regional

Weather History for KBEH - June, 2013

Change the Weather History Date:

Friday, June 21, 2013

  Actual Average Record
Temperature  
Mean Temperature 76 °F -  
Max Temperature 87 °F 80 °F 98 °F (1988)
Min Temperature 66 °F 57 °F 39 °F (1992)
Cooling Degree Days 11    
Growing Degree Days 26 (Base 50)    
Moisture  
Dew Point 64 °F    
Average Humidity 72    
Maximum Humidity 93    
Minimum Humidity 43    
Precipitation  
Precipitation 0.20 in - - ()
Sea Level Pressure  
Sea Level Pressure 30.10 in    
Wind  
Wind Speed 7 mph (South)    
Max Wind Speed 20 mph    
Max Gust Speed 33 mph    
Visibility 8 miles    
Events Rain , Thunderstorm    
Averages and records for this station are not official NWS values.
T = Trace of Precipitation, MM = Missing Value Source: NWS Daily Summary

Daily Weather History Graph

Daily Weather History Graph

Search for Another Location

Airport or City:

Trip Planner

Search our weather history database for the weather conditions in past years. The results will help you decide how hot, cold, wet, or windy it might be!

Date:

Astronomy

Jun. 21, 2013 Rise Set
Actual Time 6:09 AM EDT 9:25 PM EDT
Civil Twilight 5:35 AM EDT 9:59 PM EDT
Nautical Twilight 4:50 AM EDT 10:44 PM EDT
Astronomical Twilight 3:56 AM EDT 11:38 PM EDT
Moon 7:34 PM EDT (6/21) 4:26 AM EDT (6/21)
Length of Visible Light 16h 24m
Length of Day
15h 15m
Waxing Gibbous, 95% of the Moon is Illuminated
Jun 21
Waxing Gibbous
Jun 23
Full
Jun 30
Last Quarter
Jul 8
New
Jul 15
First Quarter

Hourly Weather History & Observations

Time (EDT) Temp. Heat Index Dew Point Humidity Pressure Visibility Wind Dir Wind Speed Gust Speed Precip Events Conditions
12:53 AM 69.1 °F - 61.0 °F 75% 30.14 in 10.0 mi ESE 4.6 mph - N/A   Mostly Cloudy
1:53 AM 69.1 °F - 62.1 °F 78% 30.14 in 9.0 mi SE 4.6 mph - N/A   Clear
2:53 AM 70.0 °F - 62.1 °F 76% 30.13 in 9.0 mi SE 5.8 mph - N/A   Clear
3:53 AM 69.1 °F - 63.0 °F 81% 30.12 in 8.0 mi SE 4.6 mph - N/A   Partly Cloudy
4:53 AM 68.0 °F - 62.1 °F 81% 30.11 in 6.0 mi SE 4.6 mph - N/A   Haze
5:53 AM 66.9 °F - 62.1 °F 84% 30.12 in 6.0 mi SE 5.8 mph - N/A   Haze
6:53 AM 68.0 °F - 62.1 °F 81% 30.12 in 6.0 mi SSE 3.5 mph - N/A   Haze
7:53 AM 72.0 °F - 62.1 °F 71% 30.14 in 8.0 mi South 6.9 mph - N/A   Clear
8:53 AM 75.9 °F - 62.1 °F 62% 30.12 in 10.0 mi South 11.5 mph 17.3 mph N/A   Clear
9:53 AM 80.1 °F 81.5 °F 63.0 °F 56% 30.12 in 10.0 mi South 8.1 mph - N/A   Clear
10:53 AM 82.9 °F 83.3 °F 61.0 °F 47% 30.13 in 10.0 mi SSW 12.7 mph 18.4 mph N/A   Clear
11:53 AM 84.9 °F 85.9 °F 63.0 °F 48% 30.12 in 10.0 mi South 10.4 mph 20.7 mph N/A   Clear
12:53 PM 84.9 °F 85.4 °F 62.1 °F 46% 30.12 in 10.0 mi South 11.5 mph - N/A   Clear
1:53 PM 86.0 °F 86.1 °F 61.0 °F 43% 30.14 in 10.0 mi SSW 10.4 mph - N/A   Clear
2:53 PM 86.0 °F 87.6 °F 64.9 °F 49% 30.12 in 10.0 mi WSW 8.1 mph - 0.00 in   Partly Cloudy
3:46 PM 73.4 °F - 62.6 °F 69% 30.16 in 10.0 mi West 18.4 mph 28.8 mph N/A Thunderstorm Overcast
3:53 PM 72.0 °F - 62.1 °F 71% 30.14 in 10.0 mi WNW 11.5 mph 33.4 mph N/A Thunderstorm Overcast
4:01 PM 73.4 °F - 62.6 °F 69% 30.15 in 8.0 mi West 19.6 mph 27.6 mph 0.00 in Rain , Thunderstorm Light Rain
4:10 PM 69.8 °F - 64.4 °F 83% 30.13 in 1.8 mi SW 10.4 mph - 0.07 in Rain , Thunderstorm Heavy Thunderstorms and Rain
4:23 PM 69.8 °F - 64.4 °F 83% 30.11 in 3.0 mi South 9.2 mph - 0.13 in Rain , Thunderstorm Thunderstorms and Rain
4:53 PM 70.0 °F - 66.9 °F 90% 30.04 in 4.0 mi SSE 13.8 mph 23.0 mph 0.18 in Rain Rain
5:53 PM 71.1 °F - 66.0 °F 84% 29.98 in 10.0 mi SSE 10.4 mph - 0.02 in   Scattered Clouds
6:53 PM 73.9 °F - 66.0 °F 76% 30.00 in 10.0 mi South 5.8 mph - N/A   Clear
7:53 PM 75.0 °F - 66.9 °F 76% 30.01 in 10.0 mi South 5.8 mph - N/A   Clear
8:53 PM 73.9 °F - 66.0 °F 76% 30.03 in 10.0 mi SW 5.8 mph - N/A   Clear
9:53 PM 71.1 °F - 66.0 °F 84% 30.04 in 10.0 mi SW 4.6 mph - N/A   Clear
10:53 PM 69.1 °F - 66.0 °F 90% 30.07 in 9.0 mi Calm Calm - N/A   Clear
11:53 PM 68.0 °F - 66.0 °F 93% 30.07 in 8.0 mi Calm Calm - N/A   Clear